TimeEDT,TemperatureF,Dew PointF,Humidity,Sea Level PressureIn,VisibilityMPH,Wind Direction,Wind SpeedMPH,Gust SpeedMPH,PrecipitationIn,Events,Conditions,WindDirDegrees,DateUTC
12:54 AM,-9999,-9999,N/A,29.99,10.0,South,11.5,-,N/A,,Clear,180,2013-04-07 04:54:00
1:54 AM,-9999,-9999,N/A,29.95,10.0,South,13.8,-,N/A,,Clear,170,2013-04-07 05:54:00
2:54 AM,-9999,-9999,N/A,29.97,10.0,South,15.0,-,N/A,,Clear,180,2013-04-07 06:54:00
3:54 AM,-9999,-9999,N/A,29.96,10.0,SSW,12.7,-,N/A,,Clear,200,2013-04-07 07:54:00
4:54 AM,-9999,-9999,N/A,29.96,10.0,SSW,11.5,-,N/A,,Clear,200,2013-04-07 08:54:00
5:54 AM,-9999,-9999,N/A,29.96,10.0,South,9.2,-,N/A,,Clear,180,2013-04-07 09:54:00
6:54 AM,55.4,39.0,54,29.96,10.0,South,10.4,-,N/A,,Clear,180,2013-04-07 10:54:00
7:54 AM,55.4,37.4,51,29.98,10.0,South,10.4,-,N/A,,Scattered Clouds,170,2013-04-07 11:54:00
8:54 AM,59.0,41.0,51,29.99,10.0,SSW,10.4,-,N/A,,Overcast,200,2013-04-07 12:54:00
9:54 AM,60.8,42.1,50,29.99,10.0,SW,16.1,27.6,N/A,,Overcast,220,2013-04-07 13:54:00
10:54 AM,60.8,43.0,52,30.01,10.0,SSW,16.1,-,N/A,,Overcast,200,2013-04-07 14:54:00
11:54 AM,62.6,46.0,55,30.02,10.0,SSW,13.8,-,N/A,,Overcast,210,2013-04-07 15:54:00
12:54 PM,69.1,46.9,45,30.01,10.0,SW,21.9,31.1,N/A,,Mostly Cloudy,220,2013-04-07 16:54:00
1:54 PM,69.8,46.9,44,30.00,10.0,WSW,24.2,33.4,N/A,,Scattered Clouds,240,2013-04-07 17:54:00
2:54 PM,-9999,-9999,N/A,30.00,10.0,SW,18.4,28.8,N/A,,Scattered Clouds,230,2013-04-07 18:54:00
3:54 PM,69.8,46.0,43,29.99,10.0,SW,16.1,26.5,N/A,,Mostly Cloudy,230,2013-04-07 19:54:00
4:54 PM,69.8,45.0,41,29.99,10.0,SW,12.7,26.5,N/A,,Overcast,230,2013-04-07 20:54:00
5:54 PM,69.8,42.8,38,30.00,10.0,SW,10.4,-,N/A,,Scattered Clouds,230,2013-04-07 21:54:00
6:54 PM,69.8,42.8,38,29.98,10.0,WSW,8.1,-,N/A,,Clear,240,2013-04-07 22:54:00
7:54 PM,66.2,45.0,46,29.98,10.0,SW,8.1,-,N/A,,Partly Cloudy,220,2013-04-07 23:54:00
8:54 PM,64.4,43.0,46,29.98,10.0,South,4.6,-,N/A,,Clear,190,2013-04-08 00:54:00
9:54 PM,62.6,43.0,49,29.99,10.0,SSE,4.6,-,N/A,,Clear,150,2013-04-08 01:54:00
10:54 PM,60.8,43.0,52,29.99,10.0,South,4.6,-,N/A,,Mostly Cloudy,190,2013-04-08 02:54:00
11:54 PM,60.8,43.0,52,30.00,10.0,South,8.1,-,N/A,,Overcast,180,2013-04-08 03:54:00